Regional Weather Roundup
Issued by NWS Newport/Morehead, NC

Current Version | Previous Version | Graphics & Text | Print | Product List | Glossary Off
Versions: 1 2 3 4 5 6 7 8 9 10 11 12 13 14 15 16 17 18 19 20 21 22 23 24 25 26 27 28 29 30 31 32 33 34 35 36 37 38 39 40 41 42 43 44 45 46 47 48 49 50

000
ASUS42 KMHX 302125
RWRMHX
WEATHER ROUNDUP FOR EASTERN NORTH CAROLINA
NATIONAL WEATHER SERVICE NEWPORT/MOREHEAD CITY NC
500 PM EDT SUN APR 30 2017

NOTE: "FAIR" INDICATES FEW OR NO CLOUDS BELOW 12,000 FEET
WITH NO SIGNIFICANT WEATHER AND/OR OBSTRUCTIONS TO VISIBILITY

NCZ015>017-031-032-045>047-102-103-302200-
NORTH COAST

CITY           SKY/WX    TMP DP  RH WIND       PRES   REMARKS
EDENTON        SUNNY     86  67  53 SW12      30.11F
ELIZABETH CITY SUNNY     85  71  63 S13G20    30.11F
KITTY HAWK     CLEAR     83  69  63 S7        30.12F
MANTEO         MOSUNNY   81  71  72 SW17      30.14F

$$

NCZ045>047-081-094-103-104-302200-
CENTRAL COAST

CITY           SKY/WX    TMP DP  RH WIND       PRES   REMARKS
FRISCO         MOSUNNY   79  70  74 SW12      30.18F HAZE

$$

NCZ095-097-098-100-101-302200-
SOUTHERN COAST

CITY           SKY/WX    TMP DP  RH WIND       PRES   REMARKS
BEAUFORT       SUNNY     78  73  84 SW15      30.18F
CEDAR ISLAND   NOT AVBL
JACKSONVILLE   SUNNY     82  71  69 SW9G23    30.14F
PINEY ISLAND   CLEAR    N/A N/A N/A SW18G29   30.16F
WILMINGTON     SUNNY     83  65  54 SW14      30.16F


$$

NCZ011>013-027>030-043-044-078>080-089-090>093-098-302200-
COASTAL PLAIN

CITY           SKY/WX    TMP DP  RH WIND       PRES   REMARKS
AHOSKIE          N/A     82  67  60 S5        30.10F
CLINTON        SUNNY     85  67  55 SW7G17    30.13S
ELIZABETHTOWN  SUNNY     85  65  52 S13       30.14F
GOLDSBORO      MOSUNNY   86  65  49 SW14G22   30.10F
GREENVILLE     SUNNY     86  66  51 SW16      30.12F
HAVELOCK       MOSUNNY   81  68  64 S15G24    30.17S
KENANSVILLE    SUNNY     84  64  51 SW8       30.14S
KINSTON        MOSUNNY   86  63  45 S14G22    30.13F
NEW BERN       SUNNY     84  67  56 SW13G23   30.15F
RICHLANDS      SUNNY     85  65  51 S16G25    30.15F
ROCKY MOUNT    PTSUNNY   83  69  62 S7G23     30.11F
WASHINGTON     MOSUNNY   85  68  57 S10G16    30.12F
WHITEVILLE     SUNNY     83  65  56 S13       30.14F

$$

AMZ130-135-150-152-154-156-158-170-250-252-270-ANZ085-086-088-633-658-670-302200-
MARINE OBSERVATIONS

STATION/POSITION TIME  TEMP    WIND        PRES    WAVE   SWELL
                       AIR SEA DIR/SP/G            HT/PER HT/PER
                 (UTC) (F)     (DEG/KT/KT) (MB)    (FT/S) (FT/S)
CHESAPEAKE LIGHT NOT AVBL
64 E VA BEACH    2050   64 61  200/ 10/ 12 1021.1    2/ 6   2/ 6
DUCK             2100   81 58  190/ 15/ 19 1019.4
2 E DUCK         2100      60                N/A     2/ 3
OREGON INLET     2100   76 80  190/ 21/ 23 1020.8
13E OREGON INLT  2048      64                N/A     3/ 5   2/ 6
HATTERAS CG      2100   77 75  210/ 12/ 18 1021.6
DIAMOND BUOY     2050   77 75  230/ 17/ 21 1022.0    3/ 5   2/ 8
CAPE LOOKOUT     2100   76     210/ 10/ 14 1021.7
BEAUFORT LAB     2100   77 75  210/ 11/ 17 1021.2
30 SE NEW RVR IN 2108   75     220/ 10/ 14 1022.3
30 SE NEW RVR IN 2043      74                N/A     4/ 5
27 SE WRIGHTSVLE 2108   76 75  200/ 12/ 16 1021.0
5 SE WRIGHTSVLE  2108   74 73  200/ 10/ 14 1021.5
225 S CAPE HAT   2050   74 76  180/  6/  8 1024.0    3/ 7   3/ 7
41 SE CHARLESTON 2110   77 76  170/ 14/ 17 1020.8

$$



USA.gov is the U.S. government's official web portal to all federal, state and local government web resources and services.